This is the latest recevied weather packets stored in our database for station/object WX4LTG. If no packets are shown the sender has not sent any weather packets the latest 10 day(s).
| Time | Temp. | Humidity | Pressure | Rain* | Wind** | Luminosity | Snow |
|---|---|---|---|---|---|---|---|
| 1777680204 | 31.11° C | 19% | 1008.4 hPa | 0 mm | - | 253 W/m² | - |
| 1777679900 | 31.11° C | 20% | 1008.4 hPa | 0 mm | - | 267 W/m² | - |
| 1777679596 | 31.11° C | 20% | 1008.4 hPa | 0 mm | - | 282 W/m² | - |
| 1777679291 | 31.11° C | 20% | 1008.4 hPa | 0 mm | - | 298 W/m² | - |
| 1777678989 | 31.11° C | 20% | 1008 hPa | 0 mm | - | 311 W/m² | - |
| 1777678687 | 31.11° C | 21% | 1008.4 hPa | 0 mm | - | 326 W/m² | - |
| 1777678384 | 31.11° C | 21% | 1008.4 hPa | 0 mm | - | 341 W/m² | - |
| 1777678080 | 31.11° C | 20% | 1008.6 hPa | 0 mm | - | 355 W/m² | - |
| 1777677777 | 30.56° C | 21% | 1008.7 hPa | 0 mm | - | 370 W/m² | - |
| 1777677475 | 31.11° C | 21% | 1008.4 hPa | 0 mm | - | 386 W/m² | - |
| 1777677173 | 30.56° C | 21% | 1008.7 hPa | 0 mm | - | 400 W/m² | - |
| 1777676871 | 31.11° C | 21% | 1008.4 hPa | 0 mm | - | 414 W/m² | - |
| 1777676569 | 31.67° C | 21% | 1008.8 hPa | 0 mm | - | 426 W/m² | - |
| 1777676266 | 31.11° C | 22% | 1008.6 hPa | 0 mm | - | 439 W/m² | - |
| 1777675963 | 30.56° C | 21% | 1008.6 hPa | 0 mm | - | 458 W/m² | - |
| 1777675659 | 30.56° C | 21% | 1008.7 hPa | 0 mm | - | 469 W/m² | - |
| 1777675357 | 30.56° C | 21% | 1008.9 hPa | 0 mm | - | 481 W/m² | - |
| 1777675053 | 30.56° C | 20% | 1008.9 hPa | 0 mm | - | 497 W/m² | - |
| 1777674750 | 31.11° C | 20% | 1009.1 hPa | 0 mm | - | 508 W/m² | - |
| 1777674446 | 30.56° C | 20% | 1009 hPa | 0 mm | - | 519 W/m² | - |
| 1777674144 | 30.56° C | 21% | 1009 hPa | 0 mm | - | 532 W/m² | - |
| 1777673840 | 30.56° C | 21% | 1008.9 hPa | 0 mm | - | 543 W/m² | - |
| 1777673537 | 30.56° C | 22% | 1009.2 hPa | 0 mm | - | 551 W/m² | - |
| 1777673235 | 30° C | 21% | 1009.2 hPa | 0 mm | - | 564 W/m² | - |
| 1777672932 | 30.56° C | 21% | 1009.2 hPa | 0 mm | - | 576 W/m² | - |
* Rain latest hour (hover to see other rain measurements)
** Current wind speed in m/s (hover to see current wind gust speed)